Location: Asheville, NC
(35.6000°N, 82.5500°W)
Time: 19:14:45
(UTC-05:00)

ISS - Pass Details

Date: 05 December 2020
Orbit: 418 x 419 km, 51.6° (Epoch: 17 January)

Event Time Altitude Azimuth Distance (km) Brightness Sun altitude
Rises 19:12:35 0° 317° (NW) 2,360 0.5 -22.9°
Reaches altitude 10° 19:14:44 10° 323° (NW) 1,494 -0.7 -23.4°
Enters shadow 19:15:35 16° 329° (NNW) 1,167 -1.3 -23.5°
